カタログに戻る

STARLINK-31516

運用中通信VLEO
NORAD 59221·PAYLOAD·🇺🇸 United States

打ち上げ Mar 11, 2024 から Vandenberg Space Force Base

Loading…

次のパス (今後24時間)

TLE

最新Source: CelesTrak SupGP

元期: Sep 14, 2026, 22:40 UTC

1 59221C 24046W   26257.94493056 -.00010687  00000+0 -31584-3 0  2571
2 59221  53.1597 351.7772 0001204  86.2792  95.2779 15.34386902    15

AllMySatでSTARLINK-31516をリアルタイム追跡

Download on the App Store